integrated web briefing

Basic information
Name Krakow-Balice Airport
ICAO EPKK
IATA KRK
Latitude N50° 4.67'
Longitude E19° 47.08'
Runways 07/25 | 2550m x 60m
Elevation 791.0ft

Arrivals
Callsign From

Departures
Callsign To

ATC Bookings
Callsign Time [UTC]
EPKK_GND 17:00 - 21:00
EPKK_TWR 17:00 - 21:00
EPKK_APP 17:00 - 21:00
EPWW_CTR 17:00 - 21:00

Pilot Briefing

Metar

EPKK 280530Z 24019KT 9999 -SHSN SCT011CB BKN017 02/00 Q1011


Runways
Runway Course Dimensions Equipment Surface
07
072° 2550m x 60m PAPI 3° CONCRETE
25
252° 2550m x 60m ILS CAT I, PAPI 3° CONCRETE

NAV Aids
Name Type Frequency / Course
KAK VOR/DME 112.80
KRW ILS CAT I 110.30 / 252°

Air Traffic Control
Callsign Name Frequency
EPKK_DEL Krakow Delivery 121.970 MHz
EPKK_GND Krakow Ground 118.100 MHz
EPKK_TWR Krakow Tower 123.250 MHz
EPKK_APP Krakow Approach 121.070 MHz
EPKK_F_APP Krakow Director 126.520 MHz
EPWW_S_CTR Warszawa Radar (main) 125.450 MHz